Location: Mahannah Oil Field
(37.4664°N, 96.6003°W)
Time: 09:36:23
(UTC+00:00)

Explorer 7 - Visible Passes

Search period start: 24 January 2021 00:00
Search period end: 03 February 2021 00:00
Orbit: 484 x 678 km, 50.3° (Epoch: 23 January)

Date Brightness Start Highest point End Pass type
(mag) Time Alt. Az. Time Alt. Az. Time Alt. Az.
24 Jan 9.5 10:59:59 13° NE 10:59:59 13° NE 11:00:30 10° NE visible
24 Jan 8.6 12:36:17 13° NW 12:37:53 16° NNW 12:40:29 10° NNE visible
25 Jan 9.5 11:04:30 12° NE 11:04:30 12° NE 11:04:55 10° NE visible
25 Jan 8.8 12:40:48 11° NW 12:42:47 14° N 12:44:59 10° NNE visible
26 Jan 9.5 11:08:57 12° NNE 11:08:57 12° NNE 11:09:19 10° NNE visible
26 Jan 9.0 12:45:47 10° NNW 12:47:43 13° N 12:49:41 10° NNE visible
27 Jan 9.5 11:13:22 11° NNE 11:13:22 11° NNE 11:13:41 10° NNE visible
27 Jan 9.0 12:50:42 10° NNW 12:52:39 13° N 12:54:38 10° NNE visible
28 Jan 9.4 11:17:44 11° NNE 11:17:44 11° NNE 11:18:05 10° NNE visible
28 Jan 9.0 12:55:22 10° NNW 12:57:34 14° N 12:59:49 10° NE visible
29 Jan 9.4 11:22:05 11° NNE 11:22:05 11° NNE 11:22:37 10° NNE visible
29 Jan 8.9 12:59:52 10° NNW 13:02:27 16° NNE 13:05:07 10° NE visible
30 Jan 9.3 11:26:26 12° NNE 11:26:26 12° NNE 11:27:20 10° NNE visible
31 Jan 9.2 11:30:47 13° N 11:30:47 13° N 11:32:22 10° NNE visible
01 Feb 9.0 11:35:08 14° N 11:35:27 14° N 11:37:37 10° NE visible
02 Feb 8.8 11:39:31 16° N 11:40:19 17° NNE 11:42:56 10° ENE visible
